Regional Weather Roundup
Issued by NWS Charleston, SC

Current Version | Previous Version | Graphics & Text | Print | Product List | Glossary On
Versions: 1 2 3 4 5 6 7 8 9 10 11 12 13 14 15 16 17 18 19 20 21 22 23 24 25 26 27 28 29 30 31 32 33 34 35 36 37 38 39 40 41 42 43 44 45 46 47 48 49 50
000 ASUS42 KCHS 060326 RWRCHS REGIONAL WEATHER ROUNDUP NATIONAL WEATHER SERVICE CHARLESTON SC 1000 PM EST THU MAR 05 2015 NOTE: "FAIR" INDICATES FEW OR NO CLOUDS BELOW 12,000 FEET WITH NO SIGNIFICANT WEATHER AND/OR OBSTRUCTIONS TO VISIBILITY. NOT ALL STATIONS ARE QUALITY CONTROLLED BY THE NATIONAL WEATHER SERVICE. USE DATA WITH CAUTION...ESPECIALLY DEWPOINT OBSERVATIONS. SCZ027-030-031-034>040-042>050-060400- ...SOUTHEAST SOUTH CAROLINA... CITY SKY/WX TMP DP RH WIND PRES REMARKS N CHARLESTON LGT RAIN 53 52 96 N20G30 30.14R WATERFRONT PRK N/A 64 N/A N/A W5G10 N/A MOUNT PLEASANT LGT RAIN 55 54 94 N10G21 30.15R PINOPOLIS NOT AVBL MONCKS CORNER RAIN 46 45 93 N15G22 30.21R SUMMERVILLE LGT RAIN 46 46 100 N18G29 30.19R BEAUFORT MCAS CLOUDY 62 58 86 NW10 30.13R BEAUFORT ARPT CLOUDY 63 61 94 NW10 30.13R HILTON HEAD IS CLOUDY 63 61 94 W6 30.15R WALTERBORO DRIZZLE 50 50 100 N8 30.19R ALLENDALE CLOUDY 52 50 93 N12G20 30.19R FOG ...SOUTHERN MIDLANDS AND PEE DEE... CITY SKY/WX TMP DP RH WIND PRES REMARKS GEORGETOWN NOT AVBL KINGSTREE NOT AVBL ORANGEBURG CLOUDY 45 40 82 N15G28 30.24R BARNWELL CLOUDY 48 46 93 NE20G25 30.21R AIKEN CLOUDY 43 39 87 N20G30 30.25R MANNING RAIN N/A N/A N/A N10 30.24R COLUMBIA LGT RAIN 44 40 85 N13 30.26R FOG SUMTER LGT RAIN 42 40 93 NE17G24 30.25R FLORENCE LGT RAIN 39 36 89 NE14G25 30.28R FOG WCI 31 MYRTLE BEACH CLOUDY 45 39 81 N17G23 30.22R FOG N MYRTLE BEACH LGT RAIN 42 39 89 N20G26 30.20R $$ GAZ063-065-086>088-099>101-113>116-118-119-134>141-150-060400- ...SOUTHEAST GEORGIA... CITY SKY/WX TMP DP RH WIND PRES REMARKS SAVANNAH ARPT CLOUDY 60 56 86 NW15 30.14R HUNTER AAF CLOUDY 61 60 97 NW13G22 30.12R FORT STEWART CLOUDY 60 56 87 NW14 30.13R STATESBORO CLOUDY 52 48 87 NW12 30.19R SYLVANIA CLOUDY 53 51 92 NW8 30.18R CLAXTON FAIR 54 50 87 W9 30.18R ...CSRA...CENTRAL AND FAR SOUTHEAST GEORGIA... CITY SKY/WX TMP DP RH WIND PRES REMARKS THOMSON CLOUDY 47 42 82 NW7 30.28R AUGUSTA-BUSH LGT RAIN 49 46 90 N9 30.21R FOG AUGUSTA-DANIEL LGT RAIN 49 45 86 N6 30.21R FOG SWAINSBORO MOCLDY 48 37 66 NW8 30.20R VIDALIA MOCLDY 48 45 87 NW9 30.20R EASTMAN FAIR 46 42 87 NW8 30.27R HAZLEHURST FAIR 51 48 92 NW7 30.20S ALMA CLOUDY 53 48 83 NW16G28 30.20R WAYCROSS MOCLDY 62 59 90 N9 30.17R JESUP CLOUDY 61 57 88 N7G17 30.17R BAXLEY CLOUDY 54 48 82 NW10 30.20R BRUNSWICK CLOUDY 64 61 88 NW3 30.15R SAINT SIMONS CLOUDY 64 61 90 NW6 30.14R $$ SCZ027-028-034-036>038-045-046-048>050-GAZ119-141-060400- ...LAKE AND SUPPLEMENTAL COASTAL OBSERVATIONS... STATION/POSITION TIME TEMP WIND PRES WAVE SWELL AIR SEA DIR/SP/G HT/PER HT/PER/DIR (UTC) (F) (DEG/KT/KT) (MB) (FT/S) (FT/S/D) UPR LAKE MARION NOT AVBL WINYAH BAY 0200 49 10/ 8 1019.0 LAKE MURRAY 0300 42 20/ 5/ 9 1024.7R ACE BASIN NERRS NOT AVBL FORT PULASKI 0300 61 53 300/ 11/ 12 1020.8R SAPELO ISLAND 0300 62 300/ 5 1020.0R $$ ANZ835-935-AMZ111-154-330-350-352-354-370-450-454-472-060400- ...C-MAN AND BUOY OBSERVATIONS... STATION/POSITION TIME TEMP WIND PRES WAVE SWELL AIR SEA DIR/SP/G HT/PER HT/PER/DIR (UTC) (F) (DEG/KT/KT) (MB) (FT/S) (FT/S/D) BUOY 41004 0250 57 69 10/ 16/ 19 1018.9R 5/ 6 2/ 9 BUOY 41008 0250 60 56 190/ 2/ 4 1019.9R 3/11 2/110/11 FOLLY BEACH CMAN 0300 63 CALM / 2 1020.2R CAPERS NEARSHORE 0200 52 70/ 10/ 12 N/A FRIPP NEARSHORE 0200 56 220/ 4/ 6 1018.3R STATION/POSITION TIME TEMP WIND PRES WAVE SWELL AIR SEA DIR/SP/G HT/PER HT/PER/DIR (UTC) (F) (DEG/KT/KT) (MB) (FT/S) (FT/S/D) 5E ST. MARYS GA 0221 56 N/A 3/10 2/110/11 FRYING PAN BUOY 0250 48 65 20/ 25/ 29 1020.3R 7/ 6 2/130/11 BUOY 41025 NOT AVBL CAPE LOOKOUT NC 0300 10/ 16/ 22 1022.0R BUOY 41002 0250 74 73 230/ 21/ 25 1019.4R 7/ 7 2/130/11 BUOY 41010 0220 75 75 180/ 14/ 16 1020.4R ST AUGUSTINE FL 0300 69 310/ 7/ 10 1021.6R $$

USA.gov is the U.S. government's official web portal to all federal, state and local government web resources and services.